Location: *
(41.2651°S, 178.0555°W)
Time: 03:17:19
(UTC+00:00)

Daily predictions for brighter satellites

Satellite Brightness Start Highest point End
(mag) Time Altitude Azimuth Time Altitude Azimuth Time Altitude Azimuth
H-2A R/B 3.1 06:53:04 10° SE 06:57:15 25° E 07:01:29 10° NNE
SL-16 R/B 3.6 06:53:09 10° SW 06:58:28 40° WNW 07:03:43 10° N
Cosmos 2221 3.3 06:54:34 10° SSE 06:58:32 33° ESE 07:02:29 10° NE
Cosmos 1408 3.7 06:55:40 10° NE 06:58:46 25° E 07:01:55 10° SSE
Cosmos 1842 Rocket 4.2 06:56:43 10° S 07:01:01 40° ESE 07:05:17 10° NNE
Lacrosse 5 rocket 4.3 06:59:40 10° SSW 07:01:10 11° SSW 07:02:41 10° S
Cosmos 540 Rocket 4.3 06:57:31 10° S 07:02:19 35° ESE 07:07:04 10° NE
Nadezhda 1 Rocket 4.4 06:57:27 10° S 07:03:20 43° ESE 07:09:06 10° NNE
Cosmos 1346 Rocket 3.9 07:01:58 10° NNE 07:05:21 26° E 07:08:46 10° SE
Cosmos 841 Rocket 4.2 07:00:31 10° S 07:05:24 37° ESE 07:10:16 10° NE
Cosmos 1939 Rocket 3.2 07:01:14 10° S 07:05:29 78° WSW 07:09:38 10° NNW
COSMOS 2428 3.6 07:00:19 10° S 07:05:32 34° ESE 07:10:43 10° ENE
CZ-4 R/B 4.4 07:02:27 10° SSE 07:06:41 77° ENE 07:10:52 10° N
Cosmos 2333 Rocket 2.7 07:01:30 10° SSW 07:07:05 45° ESE 07:12:36 10° NE
Cosmos 2084 Rocket 4.5 07:03:51 10° SSW 07:07:46 32° SE 07:11:24 11° ENE
ATLAS CENTAUR R/B 4.0 07:04:37 10° WNW 07:08:35 28° SW 07:12:43 10° SSE
Cosmos 1741 Rocket 4.1 07:03:20 10° NNW 07:08:35 89° E 07:13:56 10° SSE
Okean-O 2.7 07:04:13 10° SSE 07:08:41 57° E 07:13:05 10° N
Cosmos 972 Rocket 4.4 07:04:51 10° SSW 07:09:55 65° WNW 07:14:46 10° N
Helios 1A Rocket 2.9 07:06:19 10° SSE 07:10:31 67° ENE 07:14:41 10° N
Cosmos 1825 3.4 07:09:24 10° NE 07:12:27 23° E 07:15:32 10° SE
Cosmos 921 Rocket 3.1 07:09:29 10° SSW 07:13:44 80° WNW 07:17:56 10° NNE
USA 229 DEB 4.0 07:06:57 10° NNW 07:14:27 56° ENE 07:21:40 10° SE
USA 229 4.0 07:07:04 10° NNW 07:14:33 55° ENE 07:21:45 10° SE
Cosmos 2237 Rocket 3.9 07:12:08 10° S 07:15:58 18° SE 07:19:45 10° E
Cosmos 1076 Rocket 4.2 07:12:38 10° NNE 07:16:34 34° E 07:20:35 10° SSE
IRS-1C Rocket 4.2 07:11:23 10° SSE 07:16:44 85° WSW 07:22:01 10° NNW
ISS -1.0 07:19:32 10° SSW 07:21:34 15° S 07:23:36 10° SE
Cosmos 1745 Rocket 4.0 07:17:08 10° N 07:23:28 68° E 07:29:49 10° SSE
Cosmos 2360 Rocket 2.8 07:18:42 10° SSW 07:24:19 58° WNW 07:29:53 10° N
USA 267 3.3 07:18:15 10° SE 07:24:55 83° NE 07:31:31 10° NW
Cosmos 1340 2.8 07:21:20 10° NNW 07:25:08 81° W 07:29:01 10° S
SL-24 DEB 4.3 07:20:26 10° NNE 07:25:11 65° E 07:29:59 10° S
USA 281 3.3 07:19:27 10° SSE 07:26:07 86° WSW 07:32:43 10° NNW
Cosmos 1607 4.0 07:21:14 10° SW 07:27:21 76° WNW 07:33:25 10° NNE
H-2A R/B 4.4 07:25:47 15° NE 07:28:34 32° ESE 07:32:19 10° S
CZ-4 R/B 1.5 07:24:24 10° S 07:28:41 84° W 07:32:49 10° NNW
NOSS 3-1 (A) 4.3 07:20:39 10° NNW 07:29:19 58° ENE 07:37:05 10° SE
COSMOS 2487 4.2 07:29:02 10° NW 07:32:14 35° WSW 07:35:29 10° S
Cosmos 1386 Rocket 4.4 07:31:33 10° N 07:37:43 83° E 07:43:53 10° S
CSL-04 Debris 4.2 07:34:19 10° SSE 07:39:44 60° ENE 07:45:04 10° N
Meteor 2-2 Rocket 4.3 07:34:20 10° S 07:40:10 87° W 07:46:02 10° N
SJ-11-01 4.2 07:36:14 10° SSE 07:41:00 67° E 07:45:41 10° N
SL-16 R/B 4.4 07:39:52 10° SSE 07:41:40 11° SE 07:43:27 10° ESE
IRIS 4.4 07:40:06 10° NW 07:42:43 32° NNE 07:42:54 32° NNE
Cosmos 2227 Rocket 3.4 07:43:13 20° ENE 07:44:29 21° E 07:48:38 10° SE
NOSS 3-1 (C) 4.3 07:38:48 10° NW 07:47:42 81° SW 07:55:34 10° SSE
Cosmos 2219 Rocket 2.2 07:45:29 10° SSW 07:51:13 87° ESE 07:55:28 19° NNE
USA 186 2.5 07:48:29 10° SSE 07:51:32 32° E 07:51:42 32° ENE
Cosmos 724 4.4 07:45:56 10° SSW 07:51:48 64° SE 07:55:20 24° NE
Cosmos 1606 3.8 07:48:55 10° SSE 07:52:13 26° ESE 07:52:49 25° E
Cosmos 1709 Rocket 4.0 07:47:04 10° N 07:53:19 66° E 07:59:34 10° SSE
USA 234 3.8 07:53:29 18° E 07:58:12 50° SSE 08:04:34 10° SW
CZ-2C R/B 3.8 07:55:33 10° S 08:00:59 60° WSW 08:06:36 10° NNW
NOSS 0 Rocket 4.1 07:58:33 10° SSW 08:04:43 59° ESE 08:08:00 28° NE
Cosmos 2151 3.0 08:04:24 28° NNE 08:06:28 57° E 08:10:43 10° SSE
Cosmos 389 Rocket 3.8 08:05:32 10° SSE 08:08:28 26° ESE 08:08:28 26° ESE
Resurs 01 Rocket 3.9 08:07:38 10° ESE 08:08:03 11° ESE 08:08:03 11° ESE
OBJECT-B 2.9 08:09:57 10° SE 08:11:02 17° SE 08:11:02 17° SE
YAOGAN 1 4.4 08:11:37 10° S 08:15:33 32° WSW 08:19:26 10° NW
Cosmos 1814 Rocket 4.2 08:10:33 10° SSW 08:15:46 69° WNW 08:18:57 24° N
Cosmos 2181 Rocket 4.0 08:11:31 10° S 08:17:41 63° E 08:20:43 31° NNE
Intercosmos 24 Rocket 4.2 08:16:24 10° S 08:20:43 87° W 08:21:45 46° N
SL-8 R/B 3.8 08:18:02 10° NW 08:22:40 48° NE 08:23:15 45° ENE
ARGOS 3.3 08:17:16 10° S 08:22:43 77° WSW 08:28:06 10° NNW
Cosmos 2297 Rocket 2.2 08:20:06 20° N 08:23:58 56° ENE 08:29:32 10° SSE
Timation 2 Rocket 4.1 08:17:17 10° NNW 08:24:09 79° ENE 08:30:52 10° SSE
X-37B 2.0 08:25:16 10° WNW 08:27:04 30° NW 08:27:04 30° NW
Cosmos 968 Rocket 3.3 08:26:44 23° N 08:29:58 73° ENE 08:35:08 10° SSE
H-2A R/B 3.4 08:32:01 10° S 08:36:46 39° WSW 08:41:33 10° NW
Cosmos 1900 4.2 08:34:01 10° SSW 08:38:55 76° ESE 08:39:44 60° ENE
Ariane Rocket 2.9 08:34:32 10° SSE 08:39:43 76° ENE 08:41:24 43° N
Lacrosse 5 rocket 4.1 08:40:38 10° S 08:42:10 12° SSE 08:43:40 10° SSE
SL-08 RB Rocket 4.5 08:41:08 10° S 08:45:37 52° WSW 08:49:00 17° NW
Cosmos 2154 Rocket 4.4 08:46:27 41° ENE 08:47:00 42° E 08:52:59 10° SSE
Meteor 2-3 Rocket 3.7 08:46:37 45° NNE 08:48:26 74° E 08:54:18 10° SSE
Cosmos 1486 Rocket 4.1 08:44:09 14° NNW 08:48:39 74° WSW 08:53:56 10° SSE
COSMOS 2428 3.9 08:44:35 10° SW 08:49:47 36° WNW 08:52:45 22° NNW
Cosmos 2333 Rocket 3.9 08:46:16 10° SW 08:51:04 27° WNW 08:54:47 15° NNW
Nadezhda 3 Rocket 4.5 08:47:15 10° S 08:53:05 40° ESE 08:53:37 40° E
Cosmos 2219 3.3 08:47:55 10° NNW 08:53:39 79° WSW 08:59:23 10° SSE
SJ-6B 3.2 08:51:00 10° S 08:54:48 58° WSW 08:55:08 55° W
Resurs 1-3 3.9 08:51:54 10° SSE 08:55:35 54° SE 08:55:35 54° SE
Cosmos 1503 Rocket 3.9 08:57:43 65° NNE 08:58:27 77° ENE 09:03:54 10° SSE
ISS -1.8 08:56:12 10° SW 08:58:41 26° S 08:58:41 26° S
Cosmos 1633 3.8 09:01:51 38° S 09:01:51 38° S 09:04:14 10° S
Cosmos 2237 Rocket 2.2 08:54:57 10° SSW 09:00:43 79° WNW 09:01:45 60° N
SeaSat 1 3.8 08:57:45 10° SE 09:00:08 26° ESE 09:00:08 26° ESE
Cosmos 2082 4.1 09:03:44 47° ESE 09:03:44 47° ESE 09:08:17 10° SSE
Okean 3 Rocket 4.4 09:07:49 41° WNW 09:08:49 49° WSW 09:13:17 10° S
Cosmos 1354 Rocket 3.9 09:09:30 81° NNE 09:09:43 84° ENE 09:15:08 10° SSE
Cosmos 1980 4.0 09:05:54 10° SSW 09:11:31 60° WNW 09:12:26 53° NNW
Cosmos 1867 4.2 09:06:37 10° SSW 09:11:45 41° SE 09:11:58 41° ESE
Cosmos 1766 Rocket 4.4 09:13:09 43° WNW 09:13:49 47° WSW 09:18:08 10° S
Cosmos 1610 Rocket 4.4 09:20:18 71° NNE 09:20:54 78° E 09:27:14 10° S
SL-16 R/B 2.4 09:21:17 10° SSW 09:26:49 62° SE 09:26:49 62° SE
Cosmos 2227 Rocket 2.8 09:24:52 25° NW 09:28:03 55° WSW 09:33:41 10° SSE
Thor Agena Rocket 4.5 09:30:50 37° SE 09:30:50 37° SE 09:34:42 10° S
Cosmos 1151 Rocket 4.2 09:26:55 10° SSW 09:30:40 40° WSW 09:30:40 40° WSW
Cosmos 2184 Rocket 4.4 09:29:09 39° NW 09:31:27 59° W 09:37:48 10° S
Cosmos 1295 Rocket 4.3 09:34:31 79° E 09:34:31 79° E 09:40:48 10° S
Cosmos 2263 Rocket 4.3 09:38:43 14° SE 09:38:43 14° SE 09:39:47 10° SE
SPOT 3 Rocket 3.8 09:35:58 10° S 09:41:00 65° WSW 09:41:00 65° WSW
USA 234 3.5 09:40:50 52° NW 09:41:09 53° NW 09:47:36 10° SW
OBJECT-B 3.8 09:42:44 10° SSW 09:44:13 15° SW 09:44:13 15° SW
Resurs 01 Rocket 2.7 09:42:17 10° S 09:45:38 44° SSW 09:45:38 44° SSW
ARIANE 5 R/B 4.3 09:48:37 10° SSE 09:50:43 28° SSE 09:50:43 28° SSE
Cosmos 2341 Rocket 4.1 09:58:35 71° SE 09:58:35 71° SE 10:04:20 10° S
Terra 4.1 10:00:49 10° SE 10:01:59 16° SE 10:01:59 16° SE
Cosmos 2297 Rocket 4.3 10:03:52 10° WNW 10:08:22 24° SW 10:12:54 10° S
SL-8 Rocket 4.3 10:21:57 65° S 10:21:57 65° S 10:27:18 10° S
SPOT 5 4.4 10:16:24 10° SSE 10:19:23 34° SSE 10:19:23 34° SSE
Lacrosse 5 rocket 3.8 10:18:49 10° SSW 10:20:37 20° SSW 10:20:37 20° SSW
SJ 16-02 4.0 10:32:47 15° SSE 10:32:47 15° SSE 10:33:39 10° SSE
SeaSat 1 4.1 10:35:33 10° S 10:39:47 29° SW 10:39:54 29° SW
Cosmos 1943 4.3 10:54:12 10° SSW 10:57:50 41° SSW 10:57:50 41° SSW
NOSS 3-2 (C) 4.3 11:00:12 10° SSW 11:05:30 45° SSE 11:05:30 45° SSE
SL-16 R/B 4.4 11:06:43 10° WSW 11:08:42 16° WSW 11:08:42 16° WSW
CENTAUR R/B 3.4 11:10:52 10° SSW 11:14:43 37° S 11:14:43 37° S
Cosmos 2263 Rocket 3.4 11:20:22 37° SSW 11:20:22 37° SSW 11:24:18 10° SSE
ATLAS 2AS CENTAUR R/B 3.9 11:28:23 28° ESE 11:28:23 28° ESE 11:31:24 10° SE
Terra 4.0 11:38:37 10° S 11:40:53 22° SSW 11:40:53 22° SSW
Lacrosse 4 Rocket 4.2 11:42:32 10° S 11:44:06 17° SSE 11:44:06 17° SSE
